If you wish to contribute or participate in the discussions about articles you are invited to join SKYbrary as a registered user

 Actions

Aniak Airport

From SKYbrary Wiki

PANI
Airport
ICAO: PANI
Summary
Name Aniak Airport
Region North America
Territory Alaska US.gif
Location Aniak
Serving
Coordinates 61° 34' 53.00" N, 159° 32' 34.00" W
Runways
Designator Length Width Surface ROPS
05W/23W 914 m2,998.688 ft
122 m400.262 ft
WATER /
10/28 1829 m6,000.656 ft
46 m150.919 ft
ASPH-F yes/yes


METAR
Observation PANI 221456Z AUTO 14003KT 10SM OVC085 12/11 A3011 RMK AO2 SLP198 T01220111 56008
Station Aniak, Aniak Airport
Date/Time 22 July 2019 14:56:00
Wind direction 140°
Wind speed 03 kts
Lowest cloud amount overcast
Temperature 12.2°C
Dew point 11.1°C
Humidity 92%
QNH hPa
Weather condition n/a

BS
Tag(s) Bird Strike
BS
Tag(s) Non Avian Wildlife Hazards to Aircraft
CFIT
Tag(s) Altimeter Temperature Error Correction

Aniak Airport

ICAO: PANI IATA: ANI

Description

Regional airport serving the town of Aniak, Alaska.

Climatology

Subarctic climate (Köppen climate classification Dfc) - long, usually very cold winters, and short, cool to mild summers.

Maps

Terrain

Loading map...

Airport Layout

Loading map...


Accidents & Serious Incidents at or in vicinity of PANI

None on SKYbrary